Weather History for Fairbanks, AK

Change the Weather History Date:

Sunday, March 9, 2014

  Actual Average Record
Temperature  
Mean Temperature -6 °F 7 °F  
Max Temperature 8 °F 22 °F 50 °F (1949)
Min Temperature -21 °F -7 °F -44 °F (1911)
Degree Days  
Heating Degree Days 71 58  
Month to date heating degree days 538 533  
Since 1 July heating degree days 9930 10923  
Cooling Degree Days 0 0  
Month to date cooling degree days 0 0  
Year to date cooling degree days 0 0  
Moisture  
Dew Point -19 °F    
Average Humidity 46    
Maximum Humidity 74    
Minimum Humidity 23    
Precipitation  
Precipitation 0.00 in 0.01 in 0.40 in (1918)
Month to date precipitation 0.20 0.09  
Year to date precipitation 0.82 1.09  
Snow  
Snow 0.00 in 0.20 in 4.00 in (1918)
Month to date snowfall 2.6 1.6  
Since 1 July snowfall 45.5 57.9  
Snow Depth 22.00 in    
Sea Level Pressure  
Sea Level Pressure 29.55 in    
Wind  
Wind Speed 8 mph (NNE)    
Max Wind Speed 12 mph    
Max Gust Speed -    
Visibility 10 miles    
Events      
T = Trace of Precipitation, MM = Missing Value Source: NWS Daily Summary

Daily Weather History Graph

Daily Weather History Graph

Search for Another Location

Airport:

Trip Planner

Search our weather history database for the weather conditions in past years. The results will help you decide how hot, cold, wet, or windy it might be!

Date:

Astronomy

Mar. 09, 2014 Rise Set
Actual Time 8:31 AM AKDT 7:34 PM AKDT
Civil Twilight 7:42 AM AKDT 8:22 PM AKDT
Nautical Twilight 6:45 AM AKDT 9:20 PM AKDT
Astronomical Twilight 5:44 AM AKDT 10:22 PM AKDT
Moon 11:51 AM AKDT (3/9) 5:48 AM AKDT (3/9)
Length of Visible Light 12h 40m
Length of Day
11h 03m
Waxing Gibbous, 62% of the Moon is Illuminated
Mar 9
Waxing Gibbous
Mar 16
Full
Mar 23
Last Quarter
Mar 30
New
Apr 7
First Quarter

Hourly Weather History & Observations

Time (AKDT) Temp. Windchill Dew Point Humidity Pressure Visibility Wind Dir Wind Speed Gust Speed Precip Events Conditions
12:53 AM -0.0 °F -16.3 °F -15.0 °F 49% 29.47 in 10.0 mi North 10.4 mph - N/A   Clear
1:53 AM -0.9 °F -17.4 °F -15.0 °F 52% 29.47 in 10.0 mi North 10.4 mph - N/A   Clear
3:53 AM -0.9 °F -16.4 °F -16.1 °F 49% 29.46 in 10.0 mi North 9.2 mph - N/A   Clear
4:53 AM -9.0 °F -22.3 °F -20.0 °F 59% 29.47 in 10.0 mi NE 5.8 mph - N/A   Clear
5:53 AM -9.9 °F -27.5 °F -20.9 °F 59% 29.48 in 10.0 mi North 9.2 mph - N/A   Clear
6:53 AM -8.0 °F -22.5 °F -20.0 °F 56% 29.48 in 10.0 mi NNE 6.9 mph - N/A   Clear
7:53 AM -18.0 °F -36.1 °F -24.0 °F 74% 29.49 in 10.0 mi North 8.1 mph - N/A   Partly Cloudy
8:53 AM -18.0 °F -33.0 °F -26.0 °F 67% 29.51 in 10.0 mi NE 5.8 mph - N/A   Partly Cloudy
9:53 AM -14.1 °F -28.3 °F -24.0 °F 61% 29.52 in 10.0 mi ENE 5.8 mph - N/A   Partly Cloudy
10:53 AM -2.9 °F -13.3 °F -18.0 °F 49% 29.53 in 10.0 mi ENE 4.6 mph - N/A   Partly Cloudy
11:53 AM -0.9 °F -11.0 °F -17.0 °F 47% 29.53 in 10.0 mi East 4.6 mph - N/A   Partly Cloudy
12:53 PM 1.9 °F - -16.1 °F 43% 29.54 in 10.0 mi Calm Calm - N/A   Partly Cloudy
1:53 PM 5.0 °F -2.1 °F -17.0 °F 36% 29.55 in 10.0 mi East 3.5 mph - N/A   Partly Cloudy
2:53 PM 7.0 °F - -17.0 °F 33% 29.56 in 10.0 mi Calm Calm - N/A   Partly Cloudy
3:53 PM 5.0 °F -4.1 °F -15.0 °F 39% 29.57 in 10.0 mi South 4.6 mph - N/A   Clear
4:53 PM 6.1 °F - -16.1 °F 36% 29.58 in 10.0 mi Calm Calm - N/A   Clear
5:53 PM 8.1 °F - -17.0 °F 31% 29.59 in 10.0 mi Calm Calm - N/A   Clear
6:53 PM 1.9 °F -12.9 °F -17.0 °F 41% 29.60 in 10.0 mi North 9.2 mph - N/A   Partly Cloudy
7:53 PM -0.0 °F -15.3 °F -18.0 °F 43% 29.62 in 10.0 mi North 9.2 mph - N/A   Partly Cloudy
8:53 PM -2.0 °F -18.7 °F -18.9 °F 45% 29.64 in 10.0 mi North 10.4 mph - N/A   Partly Cloudy
9:53 PM -2.9 °F -19.8 °F -18.9 °F 46% 29.65 in 10.0 mi North 10.4 mph - N/A   Partly Cloudy
10:53 PM -4.0 °F -22.1 °F -20.0 °F 46% 29.64 in 10.0 mi North 11.5 mph - N/A   Partly Cloudy
11:53 PM -9.9 °F -26.3 °F -22.0 °F 55% 29.65 in 10.0 mi NNE 8.1 mph - N/A   Partly Cloudy
12:53 AM -11.9 °F -31.0 °F -24.0 °F 55% 29.65 in 10.0 mi North 10.4 mph - N/A   Partly Cloudy